Hourly Data Report for May 02, 2021

VINELAND STATION RCS
ONTARIO
Current Station Operator: ECCC - MSC

43°11'00.000" N
79°24'00.000" W
79.20 m
6139148
71171
XVN

Download Data

Hourly Data (May 2021)
Hourly Data Report for May 2, 2021
TIME
LST
Temp Definition
°C
Dew Point Definition
°C
Rel Hum Definition
%
Precip. Amount Definition
mm

Wind Dir Definition
10's deg

Wind Spd Definition
km/h
Visibility Definition
km
Stn Press Definition
kPa
Hmdx Definition


Wind Chill Definition


Weather Definition


00:00 13.7 2.8 48 0.0 22 29   99.33     LegendNANA
01:00 14.3 4.0 50 0.0 22 32   99.30     LegendNANA
02:00 14.3 4.9 53 0.0 22 30   99.27     LegendNANA
03:00 14.0 5.6 57 0.0 23 26   99.27     LegendNANA
04:00 13.8 6.1 60 0.0 23 24   99.26     LegendNANA
05:00 12.8 6.6 66 0.0 25 16   99.35     LegendNANA
06:00 10.0 6.5 79 0.0 7 2   99.51     LegendNANA
07:00 12.3 7.5 73 0.0 16 1   99.59     LegendNANA
08:00 13.3 7.6 68 0.0 16 6   99.59     LegendNANA
09:00 11.8 7.2 73 0.0 36 7   99.71     LegendNANA
10:00 11.0 6.0 71 0.0 3 9   99.71     LegendNANA
11:00 11.5 5.3 66 0.0 4 11   99.81     LegendNANA
12:00 10.4 5.7 73 0.0 34 6   99.80     LegendNANA
13:00 13.4 4.9 56 0.0 8 6   99.77     LegendNANA
14:00 11.8 3.9 58 0.0 36 6   99.80     LegendNANA
15:00 11.5 4.2 61 0.0 4 7   99.78     LegendNANA
16:00 12.5 5.3 61 0.0 6 5   99.72     LegendNANA
17:00 8.8 5.2 78 0.0 6 16   99.76     LegendNANA
18:00 8.3 5.4 82 0.0 8 10   99.72     LegendNANA
19:00 8.7 6.1 83 0.0 8 11   99.75     LegendNANA
20:00 9.4 6.3 81 0.0 8 15   99.78     LegendNANA
21:00 8.6 6.5 87 0.0 6 14   99.88     LegendNANA
22:00 8.3 6.2 87 0.0 7 11   99.87     LegendNANA
23:00 8.9 7.1 88 0.0 7 8   99.84     LegendNANA

Notes on Data Quality.

Legend

  • E = Estimated
  • M = Missing
  • NA = Not Available*
  • [empty] = Indicates an unobserved value
Date modified: